Torna al catalogo

STARLINK-35015

AttivoComunicazioniSSO
NORAD 65283·PAYLOAD·🇺🇸 United States

Lanciato Aug 22, 2025 da Vandenberg Space Force Base

Loading…

Prossimi Passaggi (prossime 24 ore)

TLE

AggiornatoSource: CelesTrak SupGP

Epoca: Sep 14, 2026, 22:34 UTC

1 65283C 25184L   26257.94076389  .00039132  00000+0  12151-2 0  2578
2 65283  97.2837 306.0456 0001064  90.7359  11.9026 15.33409590    19

Traccia STARLINK-35015 in tempo reale con AllMySat

Download on the App Store